カタログに戻る

STARLINK-2745

運用中通信VLEO
NORAD 48671·PAYLOAD·🇺🇸 United States

打ち上げ May 26, 2021 から Cape Canaveral Space Force Station

Loading…

次のパス (今後24時間)

TLE

最新Source: CelesTrak SupGP

元期: Sep 14, 2026, 21:05 UTC

1 48671C 21044AK  26257.87895833 -.00016123  00000+0 -51846-3 0  2578
2 48671  53.1580 315.0960 0001273  85.9080 328.0835 15.31709981    11

AllMySatでSTARLINK-2745をリアルタイム追跡

Download on the App Store